www.pogodaiklimat.ru

Погода и климат >> Архив погоды >> Сенегал >> Сент-Луис


ПОГОДА в Сент-Луисе

  • Прогноз погоды в Сент-Луисе
  • Монитор погоды в Сент-Луисе

АРХИВ ПОГОДЫ в Сент-Луисе

Время (UTC), дата Ветер
(напр.,м/с)
 
Видим.   Явления Облачность Т
(С)
Тd
(С)
f
(%)
Тe
(С)
Тes
(С)
Комфортность P
(гПа)
Po
(гПа)
Тmin
(С)
Tmax
(С)
R
(мм)
R24
(мм)
S
(см)
21 11.07 С 3 10 км 4/4 300 м
[Sc]
+25.4 +21.7 80 +33 +33 очень
душно
1012.6 1012.1
00 12.07 СЗ 2 10 км 4/4 300 м
[Sc]
+24.7 +24.3 98 +34 +34 очень
душно
1013.8 1013.3
03 12.07 СЗ 3 10 км 4/4 300 м
[Sc]
+23.8 +21.4 86 +30 +30 очень
душно
1011.6 1011.1
06 12.07 З 2 10 км 4/4 300 м
[Sc]
+23.8 +21.4 86 +30 +30 очень
душно
1011.7 1011.2 +23.0
09 12.07 ЮЗ 2 10 км 1/1 300 м
[Cu med, cong Ci sp]
+26.2 +22.2 79 +34 +40 очень
душно
1013.8 1012.3
12 12.07 З 3 10 км 3/3 300 м
[Cu med, cong]
+29.2 +22.3 66 +38 +50 очень
душно
1013.4 1012.9
15 12.07 З 5 10 км 1/1 300 м
[Sc]
+29.5 +23.0 68 +39 +47 очень
душно
1011.6 1011.1
18 12.07 З 5 10 км ясно +28.0 +22.9 74 +37 +39 очень
душно
1010.6 1010.1 +30.1
21 12.07 СЗ 3 10 км 1/1 180 м
[Sc]
+25.9 +23.3 86 +35 +35 очень
душно
1011.9 1011.4
00 13.07 С 3 10 км 4/4 300 м
[Sc]
+25.5 +23.3 88 +34 +34 очень
душно
1013.4 1012.9
03 13.07 СЗ 4 10 км 5/5 300 м
[Sc]
+25.1 +23.4 90 +34 +34 очень
душно
1012.3 1011.8
06 13.07 З 3 10 км 3/3 300 м
[Sc]
+25.0 +23.1 89 +33 +33 очень
душно
1012.2 1011.7 +24.0
09 13.07 З 3 10 км 8/4 300 м
[Sc Ac trans Ci sp]
+27.1 +23.5 81 +37 +39 очень
душно
1013.4 1012.9
12 13.07 З 4 10 км 3/3 300 м
[Sc]
+29.7 +22.9 67 +40 +49 очень
душно
1012.9 1012.4
15 13.07 С 3 10 км 1/0
[Ac trans]
+30.5 +22.3 62 +40 +53 опасность
солнечного
удара
1011.3 1010.8
18 13.07 С 3 10 км ясно +28.9 +23.7 74 +40 +42 очень
душно
1010.2 1009.7 +30.8
21 13.07 С 2 10 км 5/0
[Ac trans]
+26.6 +24.3 87 +37 +37 очень
душно
1012.0 1011.5
00 14.07 З 3 10 км 9/0
[Ac cast]
+26.4 +24.5 89 +37 +37 очень
душно
1012.8 1012.3
03 14.07 СЗ 3 10 км 4/1 300 м
[Sc Ac trans]
+25.8 +24.1 90 +36 +36 очень
душно
1011.9 1011.4
06 14.07 З 5 10 км 4/0
[Ac trans Ci fib]
+26.0 +21.5 76 +33 +33 очень
душно
1011.0 1010.5 +24.9
09 14.07 З 5 10 км 5/0
[Ac trans Ci sp]
+28.9 +18.9 55 +34 +37 очень
душно
1012.2 1011.7
12 14.07 З 5 10 км ясно +31.3 +20.8 54 +39 +49 очень
душно
1013.1 1012.6
15 14.07 З 5 10 км 5/5 300 м
[Sc]
+31.4 +23.7 64 +43 +47 опасность
перегрева
1011.8 1011.3
18 14.07 З 6 10 км 5/5 300 м
[Sc]
+28.0 +22.8 73 +37 +38 очень
душно
1010.5 1010.0 +31.5
21 14.07 СЗ 5 10 км 3/3 300 м
[Sc]
+25.6 +18.4 64 +30 +30 душно 1011.7 1011.2
00 15.07 З 3 10 км 5/5 300 м
[Sc]
+25.3 +22.7 86 +33 +33 очень
душно
1012.9 1012.4
03 15.07 З 5 10 км 6/6 300 м
[Sc]
+25.0 +22.3 85 +33 +33 очень
душно
1011.3 1010.8
06 15.07 З 6 10 км 6/6 300 м
[Sc]
+24.7 +21.4 82 +31 +31 очень
душно
1010.7 1010.2 +23.9
09 15.07 З 3 10 км 9/9 300 м
[Sc]
+25.5 +20.8 75 +32 +32 очень
душно
1011.5 1010.4
12 15.07 З 3 10 км 9/9 300 м
[Sc]
+28.0 +21.3 67 +35 +37 очень
душно
1011.4 1010.9
15 15.07 З 4 10 км н/о +28.1 +21.6 68 +36 +38 очень
душно
1010.1 1009.6
18 15.07 З 4 10 км 9/9 330 м
[Cu med, cong]
+26.3 +21.7 76 +34 +34 очень
душно
1009.7 1009.2 +28.5
21 15.07 З 3 10 км {дождь} 9/9 300 м
[Cu med, cong]
+25.5 +21.2 77 +32 +32 очень
душно
1011.0 1010.5
00 16.07 З 4 10 км {дождь} 9/9 300 м
[Sc]
+25.2 +20.0 73 +31 +31 очень
душно
1011.8 1011.3 0.0
03 16.07 З 2 10 км 9/9 300 м
[Sc]
+25.0 +20.1 74 +31 +31 очень
душно
1010.5 1010.0
06 16.07 З 2 10 км 6/4 300 м
[Sc Ci sp]
+24.0 +20.0 78 +29 +29 душно 1009.8 1009.3 +23.0 0.0
09 16.07 З 3 10 км 9/5 450 м
[Cu med, cong Ci sp]
+26.2 +20.0 69 +32 +34 очень
душно
1012.2 1011.7
12 16.07 ЮЗ 4 10 км 9/5 400 м
[Cu Sc Cs]
+28.2 +21.7 68 +36 +42 очень
душно
1012.9 1012.4
15 16.07 З 5 10 км 8/0
[Cs]
+30.3 +21.1 58 +38 +45 очень
душно
1010.4 1009.9
18 16.07 З 5 10 км 9/0
[Ac trans Ci sp]
+28.5 +21.7 67 +37 +37 очень
душно
1009.8 1009.3 +33.8
21 16.07 З 4 10 км 10/0
[Ac As]
+26.2 +21.9 77 +34 +34 очень
душно
1011.8 1011.3
00 17.07 З 2 10 км 9/1 300 м
[Sc Ac As]
+26.0 +22.3 80 +34 +34 очень
душно
1014.2 1012.7
03 17.07 З 2 10 км 9/1 300 м
[Sc Ci sp]
+25.6 +23.0 86 +34 +34 очень
душно
1012.7 1012.2
06 17.07 З 1 10 км 9/6 300 м
[Sc Ci sp]
+25.4 +22.8 86 +34 +34 очень
душно
1012.9 1012.4 +24.4
09 17.07 штиль 0 10 км 9/6 300 м
[Sc Ac As]
+27.1 +22.7 77 +36 +38 очень
душно
1015.1 1014.6
12 17.07 З 4 10 км 8/0
[Ac trans Ci sp]
+30.8 +22.5 61 +40 +49 очень
душно
1015.2 1014.7
15 17.07 З 5 10 км 4/0
[Ac trans]
+30.9 +22.8 62 +41 +47 опасность
перегрева
1013.9 1013.4
18 17.07 З 6 10 км ясно +29.2 +23.0 69 +39 +40 очень
душно
1012.9 1012.4 +33.5
21 17.07 З 5 10 км 3/0
[Ci sp]
+27.0 +22.6 77 +36 +36 очень
душно
1013.9 1013.4
00 18.07 С 3 10 км ясно +26.5 +23.5 84 +36 +36 очень
душно
1015.4 1014.9
06 18.07 С 4 10 км 8/4 300 м
[Sc]
+25.8 +23.1 85 +34 +34 очень
душно
1014.2 1013.7 +24.9
09 18.07 СЗ 5 10 км 9/8 300 м
[Sc Ci sp]
+26.5 +22.9 81 +35 +36 очень
душно
1015.5 1015.0
12 18.07 СЗ 5 10 км 9/4 300 м
[Sc Ac As]
+28.0 +22.6 73 +37 +40 очень
душно
1015.4 1014.9
15 18.07 ЮЗ 7 10 км 6/1 300 м
[Sc Ac trans Ci sp]
+29.3 +21.5 63 +37 +40 очень
душно
1013.8 1013.3
18 18.07 З 7 10 км 3/3 300 м
[Sc]
+27.8 +22.7 74 +37 +37 очень
душно
1012.3 1011.8 +33.7

 

Местоположение метеостанции Сент-Луис (Сенегал): широта 16.05 долгота -16.45 высота над уровнем моря 4 м.

В архиве по умолчанию представлена погода в Сент-Луисе за последнюю неделю. Архивные данные за месяц целиком и за предыдущие месяцы, начиная с января 2011 года, Вы можете получить, выбрав интересующий диапазон дат из раскрывающегося списка и нажав кнопку "Ввод!".


*Определитесь, кто Вы:
робот инопланетянин человек

Внимание! Время в таблицах - всемирное. Для получения местного времени необходимо прибавить поправку, которая равна 0 ч.

Смотрите также архив погоды в соседних городах и на ближайших метеорологических станциях:

Погода в Росо (Мавритания) (85 км)
Погода в Диурбеле (Сенегал) (157 км)
Погода в Лингере (Сенегал) (162 км)
Погода в Подоре (Сенегал) (172 км)
Погода в Дакаре (Сенегал) (185 км)
Погода в Каолаке (Сенегал) (218 км)
Погода в Нуакшоте (Мавритания) (234 км)
Погода в Бутилимите (Мавритания) (250 км)
Погода в Сапу (Гамбия) (281 км)
Погода в Кауере (Гамбия) (287 км)

Пояснения к столбцам:

Ветер - указаны скорость ветра в м/с - средняя за 10 мин, порывы в срок и между сроками (в фигурных скобках) и направление, откуда дует ветер: С - северный, СВ - северо-восточный, В - восточный, ЮВ - юго-восточный, Ю - южный, ЮЗ - юго-западный, З - западный, СЗ - северо-западный.
Видимость - горизонтальная дальность видимости в метрах или километрах. При видимости от 1 до 10 км при отсутствии осадков обычно наблюдается дымка, при ухудшении видимости до 1 км и менее - туман. В сухую погоду видимость может ухудшаться дымом, пылью или мглою.
Явления - указаны атмосферные явления, наблюдавшиеся в срок или в последний час перед сроком; фигурными скобками обозначены явления, наблюдавшиеся между сроками (за 1-3 часа до срока); квадратными скобками обозначены град или гололедные отложения с указанием их диаметра в мм.
Облачность - указаны через наклонную черту общая и нижняя облачность в баллах и высота нижней границы облаков в метрах; квадратными скобками обозначены формы облаков: Ci - перистые, Cs - перисто-слоистые, Cc - перисто-кучевые, Ac - высококучевые, As - высокослоистые, Sc - слоисто-кучевые, Ns - слоисто-дождевые, Cu - кучевые, Cb - кучево-дождевые. Подробнее классификацию облаков см. в Атласе облаков (PDF).
T - Температура воздуха - температура, измеренная на высоте 2 м над землей.
Td - Температура точки росы - температура, при понижении до которой содержащийся в воздухе водяной пар достигнет насыщения.
f - Относительная влажность воздуха - влажноcть воздуха, измеренная на высоте 2 м над землей.
Te - Эффективная температура - температура, которую ощущает одетый по сезону человек в тени. Характеристика душности погоды. При расчете учитывается влияние влажности воздуха и скорости ветра на теплоощущения человека.
Tes - Эффективная температура на солнце - температура, которую ощущает человек, с поправкой на солнечный нагрев. Характеристика знойности погоды. Зависит от высоты солнца над горизонтом, облачности и скорости ветра. Ночью, в пасмурную погоду, а также при ветре 12 м/с и более поправка равна нулю.
P - Атмосферное давление - приведенное к уровню моря атмосферное давление.
Po - Атмосферное давление - измеренное на уровне метеостанции атмосферное давление.
Tmin - Минимальная температура - минимум температуры воздуха на высоте 2 м над землей.
Tmax - Максимальная температура - максимум температуры воздуха на высоте 2 м над землей.
R - Количество осадков - Количество выпавших осадков за период времени, мм. При наведении курсора мыши на число - период времени, за который выпало указанное количество осадков.
R24 - Количество осадков - Количество выпавших осадков за 24 часа, мм.
S - Снежный покров - Высота снежного покрова, см. При наведении курсора мыши на число - состояние снежного покрова и степень покрытия местности в баллах.